Regional Weather Roundup
Issued by NWS

Home | Current Version | Previous Version | Text Only | Print | Product List | Glossary Off
Versions: 1 2 3 4 5 6 7 8 9 10 11 12 13 14 15 16 17 18 19 20 21 22 23 24 25 26 27 28 29 30 31 32 33 34 35 36 37 38 39 40 41 42 43 44 45 46 47 48 49 50

000
ASUS43 KLSX 241310
RWRMO

WEATHER SUMMARY FOR MISSOURI
NATIONAL WEATHER SERVICE SPRINGFIELD MO
700 AM CST TUE JAN 24 2017

NOTE: "FAIR" INDICATES FEW OR NO CLOUDS BELOW 12,000 FEET WITH NO
       SIGNIFICANT WEATHER AND/OR OBSTRUCTIONS TO VISIBILITY.
       CURRENT SKY AND/OR WEATHER CONDITIONS ARE NOT AVAILABLE FOR
       CHILLICOTHE AND FARMINGTON.

MOZ001>031-035>038-043-044-053-054-241400-
...NORTHERN AND WESTERN MISSOURI...

CITY           SKY/WX    TMP DP  RH WIND       PRES   REMARKS
KANSAS CTY INT CLOUDY    31  28  89 E17G24    29.72F FOG     WCI  19
KANSAS C DTWN  CLOUDY    33  30  88 E14G22    29.73F WCI  23
LEE`S SUMMIT   CLOUDY    31  32 100 E17       29.73F HAZE    WCI  19
ST JOSEPH      CLOUDY    31  31 100 E16G22    29.74F FOG     WCI  20
CHILLICOTHE      N/A     31  29  92 E10       29.83S WCI  22
KIRKSVILLE     CLOUDY    30  29  96 E9        29.84F WCI  22

$$
MOZ066>068-077>081-088>096-101>105-241400-
...SOUTHWEST MISSOURI...

CITY           SKY/WX    TMP DP  RH WIND       PRES   REMARKS
SPRINGFIELD    CLEAR     40  32  73 SE16      29.72F
JOPLIN         CLEAR     41  34  76 SE12      29.67R
BRANSON        CLEAR     32  32 100 SE14      29.77F WCI  22

$$
MOZ032>034-039>042-045>050-055>058-069>072-241400-
...CENTRAL MISSOURI...

CITY           SKY/WX    TMP DP  RH WIND       PRES   REMARKS
COLUMBIA       CLOUDY    33  31  92 E10       29.82F WCI  25
JEFFERSON CITY PTCLDY    27  26  96 SE8       29.85F FOG     WCI  19
ROLLA          CLEAR     29  29 100 E10       29.83S WCI  20
SEDALIA        FOG       32  31  96 E15       29.80F VSB 3/4 WCI  22
WHITEMAN AFB   CLOUDY    32  32 100 E12       29.78R FOG     WCI  23
WARRENSBURG    CLOUDY    32  30  93 E12       29.78S FOG     WCI  23
OSAGE BEACH    CLEAR     31  30  96 E8        29.81F WCI  23

$$
MOZ051-052-059>065-241400-
...EAST CENTRAL MISSOURI...

CITY           SKY/WX    TMP DP  RH WIND       PRES   REMARKS
ST LOUIS INTL  MOCLDY    38  30  73 E6        29.89F
SPIRIT OF STL  MOCLDY    36  32  85 E5        29.89F
ST CHARLES     CLOUDY    36  32  85 E5        29.90F

$$
MOZ072>076-082>087-097>100-106>115-241400-
...SOUTH CENTRAL AND SOUTHEAST MISSOURI...

CITY           SKY/WX    TMP DP  RH WIND       PRES   REMARKS
CAPE GIRARDEAU NOT AVBL
FARMINGTON     PTCLDY    25  21  86 CALM      29.90S
POPLAR BLUFF   CLEAR     29  28  96 CALM      29.92R
WEST PLAINS    CLEAR     33  31  92 SE7       29.85S WCI  27

$$




USA.gov is the U.S. government's official web portal to all federal, state and local government web resources and services.